Погода в Иецаве

Латвия     56°35′47″N   24°12′21″E
темп.,
°C
ветер,
м/с
пор.,
м/с
влажн.,
%
обл.,
%
осадки,
мм/ч
давл.,
гПа
погр.,
м
16 октября, сб
сб1600:00+9зюз5118795 0.6 1005626
03:00+6з388664 0.8 1006171
06:00+5зюз412845 0.0 1008326
09:00+5зюз5137895 0.0 1009389
12:00+8юз577976 0.4 1010848
15:00+12зюз610525 0.5 10091781
18:00+9зюз7127070 0.0 1009796
21:00+8зюз7148170 0.2 1009705
17 октября, вс
вс1700:00+9зюз61382100 0.1 1009755
03:00+9зюз61178100 0.1 1010934
06:00+9зюз61183100 0.3 1010681
09:00+8зюз4986100 0.6 1010551
12:00+10з6107077 0.5 10101188
15:00+11з71169100 0.8 10101333
18:00+10з5972100 0.2 10101240
21:00+9зсз4976100 0.5 10101047
18 октября, пн
пн1800:00+7з368399 1.0 1011460
03:00+4з310880 1.1 1012240
06:00+3з412810 0.0 1013297
09:00+3з412822 0.0 1014342
12:00+8зсз610615 0.0 10151175
15:00+9зсз610505 0.0 10161694
18:00+7зсз49605 0.0 1016316
21:00+4зсз411755 0.0 1018362
19 октября, вт
вт1900:00+3зсз4108256 0.0 1019282
03:00+4зсз388295 0.1 1021270
06:00+2зсз398988 0.1 1022228
09:00+3зсз4108260 0.1 1024310
12:00+7ссз5754100 0.0 10251319
15:00+8ссз464655 0.0 10261522
18:00+4с22625 0.0 102511
21:00+4юв2266100 0.0 102536
20 октября, ср
ср2000:00+3ююв3866100 0.0 1024205
03:00+4ю51263100 0.0 1021439
06:00+5ююв61570100 0.1 1017548
09:00+5ююв71669100 0.6 1014644
12:00+7ю81663100 0.1 1010695
15:00+7ю91782100 0.6 1006752
18:00+8ююз81693100 1.3 1003604
21:00+10ююз81891100 1.4 1000565